Hollywood, FL

11:32 PM EDT on October 23, 2019 (GMT -0400)
North Perry

Weather History for KHWO - August, 2019

Change the Weather History Date:

Friday, August 9, 2019

  Actual Average (KFLL) Record (KFLL)
Temperature  
Mean Temperature 87 °F 85 °F  
Max Temperature 97 °F 91 °F 98 °F (1963)
Min Temperature 77 °F 79 °F 69 °F (1917)
Degree Days  
Heating Degree Days 0 0  
Month to date heating degree days 0  
Since 1 June heating degree days 0  
Since 1 July heating degree days 0  
Cooling Degree Days 22 20  
Month to date cooling degree days 180  
Year to date cooling degree days 2739  
Since 1 June cooling degree days 1321  
Growing Degree Days 37 (Base 50)    
Moisture  
Dew Point 75 °F    
Average Humidity 81    
Maximum Humidity 91    
Minimum Humidity 46    
Precipitation  
Precipitation 0.54 in 0.23 in 2.19 in (1997)
Month to date precipitation 1.96  
Year to date precipitation 35.59  
Snow  
Snow 0.00 in - - ()
Month to date snowfall  
Since 1 June snowfall  
Since 1 July snowfall  
Snow Depth -    
Sea Level Pressure  
Sea Level Pressure 30.01 in    
Wind  
Wind Speed 4 mph (SW)    
Max Wind Speed 24 mph    
Max Gust Speed 30 mph    
Visibility 9 miles    
Events Rain , Thunderstorm    
T = Trace of Precipitation, MM = Missing Value Source: NWS Daily Summary

Daily Weather History Graph

Daily Weather History Graph

Search for Another Location

Airport or City:

Astronomy

Aug. 09, 2019 Rise Set
Actual Time 6:50 AM EDT 8:01 PM EDT
Civil Twilight 6:26 AM EDT 8:26 PM EDT
Nautical Twilight 5:57 AM EDT 8:55 PM EDT
Astronomical Twilight 5:27 AM EDT 9:24 PM EDT
Moon 3:34 PM EDT (8/9) 1:50 AM EDT (8/9)
Length of Visible Light 13h 59m
Length of Day
13h 11m
Waxing Gibbous, 70% of the Moon is Illuminated
Aug 9
Waxing Gibbous
Aug 15
Full
Aug 23
Last Quarter
Aug 30
New
Sep 5
First Quarter

Hourly Weather History & Observations

Time (EDT) Temp. Heat Index Dew Point Humidity Pressure Visibility Wind Dir Wind Speed Gust Speed Precip Events Conditions
12:53 AM 79.0 °F - 75.0 °F 88% 30.03 in 10.0 mi South 3.5 mph - N/A   Clear
1:53 AM 79.0 °F - 75.0 °F 88% 30.01 in 10.0 mi Calm Calm - N/A   Clear
2:53 AM 79.0 °F - 75.0 °F 88% 30.00 in 10.0 mi Calm Calm - N/A   Clear
3:53 AM 79.0 °F - 75.0 °F 88% 29.98 in 10.0 mi Calm Calm - N/A   Clear
4:53 AM 78.1 °F - 75.0 °F 90% 29.98 in 10.0 mi Calm Calm - N/A   Clear
5:53 AM 78.1 °F - 75.0 °F 90% 29.98 in 10.0 mi Calm Calm - N/A   Clear
6:53 AM 78.1 °F - 75.0 °F 90% 29.99 in 10.0 mi Calm Calm - N/A   Clear
7:53 AM 81.0 °F 88.6 °F 78.1 °F 91% 30.01 in 10.0 mi SSW 3.5 mph - N/A   Clear
8:53 AM 84.9 °F 95.3 °F 77.0 °F 77% 30.02 in 10.0 mi WNW 4.6 mph - N/A   Clear
9:53 AM 88.0 °F 98.5 °F 75.9 °F 67% 30.03 in 10.0 mi WNW 3.5 mph - N/A   Clear
10:53 AM 89.1 °F 99.1 °F 75.0 °F 63% 30.04 in 10.0 mi West 5.8 mph - N/A   Scattered Clouds
11:53 AM 91.0 °F 99.3 °F 73.0 °F 55% 30.04 in 10.0 mi Variable 3.5 mph - N/A   Partly Cloudy
12:53 PM 91.9 °F 100.7 °F 73.0 °F 54% 30.03 in 10.0 mi WSW 6.9 mph - N/A   Partly Cloudy
1:53 PM 93.0 °F 100.7 °F 72.0 °F 50% 30.01 in 10.0 mi SW 4.6 mph - N/A   Mostly Cloudy
2:53 PM 97.0 °F 107.0 °F 73.0 °F 46% 29.99 in 10.0 mi NW 8.1 mph - N/A   Scattered Clouds
3:53 PM 87.1 °F 95.4 °F 73.9 °F 65% 29.98 in 10.0 mi West 24.2 mph 29.9 mph 0.00 in Rain Light Rain
4:03 PM 80.1 °F 85.4 °F 75.9 °F 87% 29.99 in 2.5 mi WNW 16.1 mph 28.8 mph 0.06 in Rain Rain
4:12 PM 79.0 °F - 75.0 °F 88% 30.00 in 2.5 mi WNW 13.8 mph 23.0 mph 0.15 in Rain , Thunderstorm Heavy Rain
4:21 PM 79.0 °F - 73.9 °F 84% 30.01 in 5.0 mi SW 6.9 mph - 0.18 in Rain , Thunderstorm Thunderstorms and Rain
4:32 PM 78.1 °F - 73.9 °F 87% 30.01 in 1.8 mi SSE 9.2 mph - 0.39 in Rain , Thunderstorm Heavy Thunderstorms and Rain
4:48 PM 77.0 °F - 73.4 °F 89% 30.01 in 3.0 mi South 4.6 mph - 0.51 in Rain , Thunderstorm Light Thunderstorms and Rain
4:53 PM 77.0 °F - 73.0 °F 88% 30.01 in 8.0 mi SE 5.8 mph - 0.51 in Rain , Thunderstorm Light Thunderstorms and Rain
5:27 PM 77.0 °F - 73.9 °F 90% 30.00 in 10.0 mi SSE 6.9 mph - 0.00 in Rain , Thunderstorm Light Rain
5:35 PM 78.1 °F - 73.9 °F 87% 30.00 in 10.0 mi SSE 8.1 mph - 0.00 in   Scattered Clouds
5:53 PM 78.1 °F - 73.9 °F 87% 30.00 in 10.0 mi SE 3.5 mph - 0.01 in Rain Light Rain
6:53 PM 80.1 °F 85.1 °F 75.0 °F 85% 29.99 in 10.0 mi SSW 5.8 mph - 0.02 in Rain Light Rain
7:53 PM 80.1 °F 85.1 °F 75.0 °F 85% 30.00 in 10.0 mi SSW 3.5 mph - 0.00 in   Clear
8:53 PM 80.1 °F 85.4 °F 75.9 °F 87% 30.00 in 10.0 mi Calm Calm - N/A   Clear
9:53 PM 80.1 °F 85.4 °F 75.9 °F 87% 30.02 in 10.0 mi West 3.5 mph - N/A   Clear
10:53 PM 80.1 °F 85.8 °F 77.0 °F 90% 30.04 in 10.0 mi SSW 3.5 mph - N/A   Clear
11:53 PM 81.0 °F 87.9 °F 77.0 °F 88% 30.04 in 10.0 mi Calm Calm - N/A   Clear